DW0026 Weather Reports


Display with metric or nautical units.
time (UTC)temp
F
wind
direction
speed
MPH
gust
MPH
rain 1hr
in
rain 24hr
in
rain mn
in
humidity
%
barometer
mb
20210805024510 88 259 5.0 13.0 0.00 0.00 0.00 19 1004.6
20210805023011 90 261 6.0 16.0 0.00 0.00 0.00 19 1004.5
20210805021508 91 265 5.0 11.0 0.00 0.00 0.00 18 1004.4
20210805020006 91 263 5.0 11.0 0.00 0.00 0.00 18 1004.2
20210805014506 93 284 2.0 10.0 0.00 0.00 0.00 18 1004.3
20210805013018 94 250 3.0 9.0 0.00 0.00 0.00 17 1004.1
20210805011504 94 223 4.0 10.0 0.00 0.00 0.00 17 1004.2
20210805010010 94 231 5.0 13.0 0.00 0.00 0.00 17 1004.3
20210805004501 94 227 6.0 17.0 0.00 0.00 0.00 17 1004.2
20210805003159 94 244 3.0 11.0 0.00 0.00 0.00 17 1004.4
20210805001741 94 157 2.0 16.0 0.00 0.00 0.00 18 1004.5
20210805000305 95 235 3.0 15.0 0.00 0.00 0.00 17 1004.6
20210804234624 95 202 1.0 7.0 0.00 0.00 0.00 17 1004.8
20210804233113 95 242 4.0 15.0 0.00 0.00 0.00 16 1004.9
20210804231631 95 165 2.0 14.0 0.00 0.00 0.00 18 1005.1
20210804230110 96 246 12.0 20.0 0.00 0.00 0.00 16 1005.1
20210804224614 96 232 5.0 18.0 0.00 0.00 0.00 14 1005.3
20210804223107 96 246 6.0 14.0 0.00 0.00 0.00 14 1005.5
20210804221636 95 253 4.0 14.0 0.00 0.00 0.00 17 1005.6
20210804220129 95 228 9.0 33.0 0.00 0.00 0.00 16 1005.8
20210804214629 95 254 6.0 15.0 0.00 0.00 0.00 15 1006.0
20210804213057 95 259 3.0 13.0 0.00 0.00 0.00 15 1006.2
20210804211557 95 238 6.0 16.0 0.00 0.00 0.00 16 1006.5
20210804210129 95 238 3.0 11.0 0.00 0.00 0.00 17 1006.7
20210804204600 94 238 4.0 15.0 0.00 0.00 0.00 17 1006.9
20210804203056 95 302 1.0 9.0 0.00 0.00 0.00 15 1006.9
20210804201614 95 302 3.0 13.0 0.00 0.00 0.00 16 1007.3
20210804200116 94 316 0.0 9.0 0.00 0.00 0.00 15 1007.3
20210804194603 93 341 1.0 9.0 0.00 0.00 0.00 17 1007.5
20210804193052 93 349 0.0 2.0 0.00 0.00 0.00 20 1007.5
20210804184620 89 345 0.0 2.0 0.00 0.00 0.00 25 1008.1
20210804183105 88 345 0.0 3.0 0.00 0.00 0.00 26 1008.5
20210804180137 85 345 0.0 2.0 0.00 0.00 0.00 30 1008.6
20210804174724 84 345 0.0 0.0 0.00 0.00 0.00 27 1008.8
20210804173030 81 345 0.0 0.0 0.00 0.00 0.00 29 1008.9
20210804170234 79 345 0.0 0.0 0.00 0.00 0.00 32 1009.1
20210804164618 79 345 0.0 0.0 0.00 0.00 0.00 35 1009.3
20210804163013 78 345 0.0 0.0 0.00 0.00 0.00 31 1009.1
20210804160148 74 345 0.0 0.0 0.00 0.00 0.00 32 1009.6
20210804154517 72 345 0.0 0.0 0.00 0.00 0.00 37 1009.7
20210804144635 63 345 0.0 0.0 0.00 0.00 0.00 53 1009.9
20210804143015 59 345 0.0 0.0 0.00 0.00 0.00 66 1009.8
20210804140102 56 345 0.0 0.0 0.00 0.00 0.00 63 1009.6
20210804134516 55 345 0.0 0.0 0.00 0.00 0.00 67 1009.4
20210804133007 55 345 0.0 0.0 0.00 0.00 0.00 65 1009.5
20210804130043 56 346 0.0 0.0 0.00 0.00 0.00 63 1009.2
20210804123113 56 345 0.0 0.0 0.00 0.00 0.00 59 1009.0
20210804121603 57 345 0.0 0.0 0.00 0.00 0.00 58 1008.9
20210804114636 58 345 0.0 0.0 0.00 0.00 0.00 58 1009.0
20210804113047 58 345 0.0 0.0 0.00 0.00 0.00 51 1009.0
20210804110022 59 345 0.0 0.0 0.00 0.00 0.00 53 1009.2
20210804103213 60 345 0.0 0.0 0.00 0.00 0.00 50 1008.9
20210804101624 60 345 0.0 0.0 0.00 0.00 0.00 51 1009.0
20210804094640 62 345 0.0 0.0 0.00 0.00 0.00 49 1008.7
20210804093023 62 345 0.0 0.0 0.00 0.00 0.00 44 1008.7
20210804091505 63 345 0.0 0.0 0.00 0.00 0.00 44 1008.9
20210804084709 64 345 0.0 0.0 0.00 0.00 0.00 49 1009.0
20210804083019 65 345 0.0 0.0 0.00 0.00 0.00 45 1009.1
20210804081643 66 345 0.0 0.0 0.00 0.00 0.00 50 1008.8
20210804080006 67 345 0.0 0.0 0.00 0.00 0.00 48 1009.0
20210804074645 68 345 0.0 0.0 0.00 0.00 0.00 43 1009.1
20210804073020 69 345 0.0 0.0 0.00 0.00 0.00 40 1009.3
20210804063138 73 345 0.0 0.0 0.00 0.00 0.00 26 1009.1
20210804061539 76 345 0.0 0.0 0.00 0.00 0.00 30 1009.1
20210804054602 79 345 0.0 6.0 0.00 0.00 0.00 22 1009.1
20210804053043 80 345 0.0 6.0 0.00 0.00 0.00 20 1009.2
20210804051709 81 345 0.0 8.0 0.00 0.00 0.00 20 1009.2
20210804050217 81 345 5.0 12.0 0.00 0.00 0.00 20 1009.1
20210804044644 81 346 1.0 8.0 0.00 0.00 0.00 21 1009.1
20210804043017 81 346 0.0 2.0 0.00 0.00 0.00 21 1008.9
20210804040222 83 346 0.0 0.0 0.00 0.00 0.00 20 1008.6
20210804034638 84 346 0.0 10.0 0.00 0.00 0.00 19 1008.3
20210804033047 85 345 0.0 8.0 0.00 0.00 0.00 18 1008.1
20210804031549 87 345 1.0 9.0 0.00 0.00 0.00 18 1008.0